QPF
0.00 0.00 0.00 0.00 0.00 0.00 0.00 0.00 0.00 0.00 0.00 0.00 0.00 0.00 0.01 0.01 0.01 0.01 0.02 0.02 0.02 0.03 0.05 0.06 0.03 0.02 0.02 0.02 0.02 0.02 0.02 0.04 0.05 0.05 0.03 0.03 0.04 0.06 0.06 0.07 0.06 0.08 0.09 0.10
0.00 0.00 0.00 0.00 0.00 0.00 0.00 0.00 0.00 0.00 0.00 0.00 0.00 0.00 0.02 0.02 0.01 0.01 0.01 0.01 0.01 0.02 0.02 0.03 0.02 0.02 0.02 0.02 0.02 0.02 0.02 0.02 0.02 0.02 0.02 0.03 0.04 0.05 0.06 0.06 0.07 0.08 0.10 0.11
0.00 0.00 0.00 0.00 0.00 0.00 0.00 0.00 0.00 0.00 0.00 0.00 0.00 0.00 0.01 0.01 0.01 0.00 0.01 0.01 0.01 0.01 0.01 0.01 0.01 0.01 0.02 0.02 0.02 0.02 0.02 0.01 0.01 0.01 0.01 0.03 0.03 0.03 0.05 0.05 0.05 0.07 0.09 0.09
0.00 0.00 0.00 0.00 0.00 0.00 0.00 0.00 0.00 0.00 0.00 0.00 0.00 0.01 0.01 0.01 0.01 0.01 0.01 0.01 0.01 0.01 0.01 0.01 0.01 0.01 0.01 0.01 0.01 0.01 0.01 0.01 0.00 0.01 0.01 0.01 0.02 0.02 0.02 0.02 0.02 0.04 0.06 0.06
0.00 0.00 0.00 0.00 0.00 0.00 0.00 0.00 0.00 0.00 0.00 0.00 0.01 0.01 0.01 0.01 0.01 0.01 0.01 0.01 0.01 0.01 0.02 0.01 0.01 0.01 0.01 0.01 0.01 0.01 0.01 0.01 0.01 0.00 0.00 0.00 0.01 0.01 0.02 0.02 0.02 0.02 0.04 0.07
0.00 0.00 0.00 0.00 0.00 0.00 0.00 0.00 0.00 0.00 0.01 0.01 0.02 0.01 0.01 0.01 0.01 0.01 0.01 0.01 0.02 0.01 0.01 0.01 0.01 0.01 0.01 0.01 0.02 0.01 0.01 0.01 0.01 0.01 0.01 0.01 0.01 0.01 0.02 0.02 0.02 0.02 0.02 0.04
0.00 0.00 0.00 0.00 0.00 0.00 0.00 0.00 0.01 0.01 0.02 0.02 0.01 0.01 0.01 0.02 0.02 0.02 0.02 0.02 0.02 0.02 0.02 0.01 0.01 0.01 0.01 0.01 0.01 0.02 0.02 0.01 0.01 0.01 0.01 0.02 0.02 0.03 0.03 0.03 0.03 0.03 0.04 0.05
0.00 0.00 0.00 0.00 0.00 0.00 0.00 0.01 0.02 0.02 0.02 0.02 0.01 0.01 0.01 0.02 0.03 0.03 0.04 0.04 0.03 0.03 0.03 0.03 0.02 0.01 0.01 0.01 0.01 0.01 0.01 0.02 0.02 0.01 0.02 0.02 0.02 0.02 0.03 0.04 0.04 0.04 0.05 0.06
0.00 0.00 0.00 0.00 0.00 0.00 0.01 0.01 0.02 0.02 0.02 0.02 0.02 0.02 0.02 0.03 0.05 0.05 0.06 0.06 0.05 0.05 0.05 0.04 0.03 0.02 0.01 0.01 0.02 0.02 0.03 0.02 0.03 0.03 0.03 0.03 0.03 0.02 0.02 0.03 0.03 0.03 0.03 0.03
0.01 0.01 0.01 0.01 0.02 0.02 0.02 0.01 0.02 0.02 0.02 0.03 0.03 0.04 0.04 0.04 0.06 0.07 0.07 0.08 0.07 0.06 0.05 0.04 0.03 0.02 0.02 0.01 0.02 0.02 0.02 0.02 0.03 0.03 0.03 0.03 0.04 0.03 0.02 0.02 0.02 0.02 0.02 0.03
0.02 0.02 0.02 0.02 0.03 0.03 0.03 0.03 0.03 0.03 0.04 0.05 0.05 0.06 0.05 0.05 0.06 0.07 0.07 0.06 0.05 0.04 0.03 0.02 0.02 0.02 0.02 0.02 0.03 0.04 0.04 0.03 0.03 0.03 0.03 0.03 0.04 0.04 0.03 0.02 0.03 0.03 0.04 0.04
0.03 0.03 0.03 0.04 0.04 0.04 0.05 0.05 0.05 0.05 0.05 0.07 0.07 0.07 0.06 0.05 0.06 0.06 0.05 0.04 0.03 0.02 0.02 0.03 0.03 0.02 0.03 0.03 0.03 0.04 0.04 0.05 0.04 0.04 0.03 0.03 0.03 0.03 0.04 0.04 0.04 0.04 0.04 0.04
0.04 0.04 0.05 0.06 0.05 0.05 0.05 0.05 0.05 0.05 0.05 0.08 0.09 0.08 0.07 0.06 0.06 0.06 0.05 0.04 0.03 0.02 0.02 0.03 0.02 0.02 0.02 0.02 0.03 0.04 0.03 0.03 0.03 0.02 0.02 0.02 0.02 0.03 0.04 0.04 0.04 0.04 0.04 0.04
0.04 0.06 0.06 0.07 0.07 0.06 0.06 0.05 0.05 0.05 0.04 0.04 0.04 0.05 0.05 0.06 0.05 0.06 0.07 0.05 0.04 0.03 0.02 0.02 0.03 0.03 0.02 0.02 0.02 0.02 0.03 0.03 0.02 0.02 0.02 0.02 0.02 0.02 0.02 0.04 0.05 0.04 0.05 0.06
0.05 0.06 0.07 0.08 0.10 0.10 0.08 0.07 0.06 0.05 0.03 0.02 0.02 0.02 0.03 0.04 0.04 0.03 0.04 0.04 0.05 0.05 0.04 0.02 0.02 0.02 0.03 0.03 0.03 0.02 0.02 0.03 0.02 0.01 0.02 0.02 0.03 0.03 0.03 0.04 0.05 0.07 0.07 0.07
0.04 0.06 0.07 0.07 0.10 0.12 0.11 0.10 0.08 0.06 0.04 0.03 0.02 0.01 0.01 0.01 0.01 0.01 0.01 0.01 0.02 0.04 0.04 0.04 0.03 0.03 0.03 0.03 0.03 0.03 0.03 0.03 0.03 0.02 0.01 0.01 0.02 0.03 0.05 0.05 0.05 0.06 0.07 0.07
0.05 0.06 0.06 0.06 0.06 0.07 0.08 0.08 0.08 0.08 0.07 0.04 0.03 0.02 0.01 0.00 0.00 0.00 0.00 0.00 0.01 0.02 0.02 0.02 0.03 0.03 0.03 0.03 0.03 0.03 0.03 0.03 0.02 0.02 0.01 0.02 0.02 0.03 0.05 0.07 0.07 0.07 0.07 0.08
0.05 0.05 0.05 0.05 0.04 0.04 0.05 0.06 0.06 0.07 0.07 0.06 0.04 0.02 0.01 0.00 0.00 0.00 0.00 0.00 0.01 0.01 0.02 0.02 0.02 0.02 0.02 0.03 0.02 0.02 0.02 0.02 0.02 0.03 0.04 0.05 0.06 0.06 0.06 0.08 0.09 0.08 0.09 0.11
0.06 0.06 0.05 0.04 0.04 0.03 0.03 0.04 0.04 0.04 0.03 0.02 0.02 0.02 0.02 0.01 0.00 0.00 0.00 0.01 0.01 0.01 0.01 0.02 0.02 0.01 0.02 0.02 0.02 0.01 0.02 0.03 0.04 0.06 0.07 0.08 0.06 0.05 0.05 0.06 0.07 0.07 0.08 0.09
0.05 0.06 0.06 0.05 0.04 0.03 0.03 0.02 0.03 0.03 0.02 0.01 0.01 0.01 0.01 0.01 0.01 0.01 0.01 0.01 0.01 0.01 0.01 0.01 0.01 0.01 0.01 0.01 0.01 0.01 0.01 0.01 0.02 0.03 0.03 0.03 0.03 0.02 0.02 0.03 0.04 0.04 0.05 0.05
0.05 0.06 0.08 0.08 0.07 0.05 0.03 0.02 0.02 0.02 0.02 0.01 0.01 0.01 0.01 0.01 0.01 0.02 0.03 0.04 0.04 0.02 0.02 0.02 0.01 0.01 0.01 0.01 0.01 0.00 0.00 0.01 0.01 0.01 0.01 0.01 0.01 0.02 0.02 0.02 0.02 0.02 0.02 0.02
0.04 0.03 0.03 0.04 0.05 0.04 0.03 0.02 0.01 0.01 0.01 0.01 0.01 0.01 0.01 0.01 0.01 0.02 0.03 0.04 0.04 0.03 0.01 0.01 0.01 0.01 0.01 0.01 0.00 0.00 0.00 0.00 0.01 0.01 0.01 0.01 0.01 0.01 0.01 0.01 0.01 0.01 0.01 0.01
0.03 0.03 0.02 0.03 0.03 0.02 0.02 0.01 0.01 0.01 0.01 0.01 0.01 0.01 0.01 0.01 0.01 0.02 0.02 0.02 0.02 0.02 0.01 0.01 0.01 0.01 0.00 0.00 0.00 0.00 0.00 0.00 0.01 0.01 0.01 0.01 0.01 0.01 0.01 0.01 0.01 0.01 0.01 0.01
0.03 0.03 0.03 0.03 0.03 0.03 0.02 0.01 0.01 0.01 0.01 0.01 0.01 0.01 0.02 0.02 0.03 0.03 0.03 0.03 0.02 0.02 0.01 0.01 0.01 0.00 0.00 0.00 0.00 0.00 0.00 0.00 0.01 0.01 0.01 0.01 0.01 0.02 0.01 0.01 0.01 0.01 0.01 0.01
0.03 0.04 0.04 0.04 0.03 0.03 0.02 0.01 0.01 0.01 0.01 0.01 0.01 0.02 0.02 0.02 0.02 0.02 0.02 0.02 0.02 0.01 0.01 0.01 0.00 0.00 0.00 0.00 0.00 0.00 0.00 0.00 0.00 0.00 0.00 0.00 0.01 0.01 0.01 0.01 0.01 0.01 0.01 0.01
0.03 0.04 0.04 0.05 0.03 0.03 0.02 0.02 0.02 0.02 0.02 0.02 0.02 0.02 0.03 0.02 0.02 0.01 0.01 0.01 0.01 0.01 0.01 0.01 0.00 0.00 0.00 0.00 0.00 0.00 0.00 0.00 0.00 0.00 0.00 0.01 0.01 0.01 0.01 0.01 0.01 0.01 0.01 0.01
0.03 0.03 0.03 0.03 0.05 0.05 0.04 0.03 0.03 0.04 0.03 0.02 0.02 0.02 0.02 0.02 0.02 0.01 0.01 0.01 0.01 0.01 0.01 0.01 0.01 0.00 0.00 0.00 0.00 0.00 0.00 0.00 0.00 0.00 0.00 0.01 0.01 0.01 0.01 0.01 0.01 0.01 0.01 0.00
MSLP
1012.32 1012.29 1012.40 1012.62 1012.91 1013.18 1013.37 1013.41 1013.25 1012.89 1012.35 1011.70 1011.01 1010.39 1009.91 1009.64 1009.60 1009.78 1010.16 1010.67 1011.24 1011.82 1012.35 1012.81 1013.20 1013.53 1013.83 1014.12 1014.43 1014.76 1015.11 1015.44 1015.73 1015.93 1016.01 1015.93 1015.69 1015.28 1014.74 1014.08 1013.37 1012.63 1011.94 1011.34
1012.63 1012.45 1012.33 1012.28 1012.26 1012.23 1012.16 1012.02 1011.77 1011.44 1011.03 1010.59 1010.18 1009.85 1009.65 1009.60 1009.71 1009.98 1010.37 1010.85 1011.37 1011.89 1012.39 1012.86 1013.30 1013.71 1014.12 1014.53 1014.94 1015.36 1015.75 1016.09 1016.35 1016.50 1016.50 1016.34 1016.01 1015.53 1014.91 1014.20 1013.42 1012.63 1011.89 1011.24
1012.97 1012.64 1012.33 1012.02 1011.72 1011.41 1011.09 1010.77 1010.43 1010.10 1009.80 1009.54 1009.36 1009.28 1009.31 1009.45 1009.71 1010.05 1010.46 1010.92 1011.40 1011.89 1012.38 1012.86 1013.35 1013.85 1014.36 1014.87 1015.38 1015.86 1016.30 1016.65 1016.89 1017.00 1016.94 1016.73 1016.35 1015.83 1015.20 1014.48 1013.71 1012.93 1012.19 1011.54
1013.31 1012.86 1012.37 1011.84 1011.29 1010.74 1010.20 1009.71 1009.27 1008.93 1008.69 1008.56 1008.55 1008.66 1008.87 1009.17 1009.54 1009.95 1010.39 1010.84 1011.30 1011.77 1012.26 1012.78 1013.32 1013.89 1014.49 1015.09 1015.68 1016.23 1016.70 1017.06 1017.29 1017.37 1017.30 1017.07 1016.69 1016.20 1015.60 1014.94 1014.24 1013.54 1012.87 1012.28
1013.62 1013.07 1012.43 1011.72 1010.96 1010.20 1009.48 1008.84 1008.31 1007.92 1007.70 1007.65 1007.76 1007.99 1008.33 1008.74 1009.19 1009.66 1010.12 1010.59 1011.05 1011.53 1012.04 1012.59 1013.18 1013.83 1014.50 1015.18 1015.84 1016.43 1016.93 1017.31 1017.54 1017.63 1017.57 1017.37 1017.05 1016.63 1016.13 1015.58 1015.01 1014.44 1013.89 1013.39
1013.86 1013.22 1012.46 1011.61 1010.70 1009.77 1008.90 1008.13 1007.51 1007.08 1006.85 1006.83 1006.99 1007.30 1007.71 1008.19 1008.70 1009.21 1009.70 1010.19 1010.67 1011.18 1011.72 1012.31 1012.97 1013.67 1014.41 1015.15 1015.86 1016.49 1017.02 1017.42 1017.69 1017.81 1017.79 1017.66 1017.43 1017.13 1016.78 1016.38 1015.97 1015.55 1015.15 1014.78
1014.01 1013.28 1012.43 1011.47 1010.45 1009.42 1008.44 1007.58 1006.89 1006.40 1006.15 1006.12 1006.29 1006.63 1007.07 1007.59 1008.13 1008.67 1009.19 1009.71 1010.23 1010.77 1011.36 1012.01 1012.72 1013.48 1014.27 1015.05 1015.79 1016.46 1017.02 1017.46 1017.77 1017.95 1018.01 1017.98 1017.88 1017.72 1017.52 1017.30 1017.06 1016.81 1016.55 1016.30
1014.03 1013.23 1012.31 1011.29 1010.20 1009.11 1008.07 1007.16 1006.43 1005.91 1005.62 1005.57 1005.73 1006.06 1006.50 1007.02 1007.58 1008.14 1008.69 1009.25 1009.81 1010.40 1011.04 1011.74 1012.49 1013.29 1014.12 1014.93 1015.70 1016.40 1017.00 1017.48 1017.84 1018.09 1018.25 1018.34 1018.37 1018.37 1018.34 1018.28 1018.21 1018.11 1017.98 1017.85
1013.93 1013.07 1012.11 1011.05 1009.95 1008.85 1007.81 1006.89 1006.15 1005.61 1005.31 1005.23 1005.36 1005.67 1006.10 1006.61 1007.16 1007.73 1008.31 1008.90 1009.50 1010.13 1010.82 1011.55 1012.34 1013.17 1014.02 1014.85 1015.64 1016.36 1016.99 1017.51 1017.94 1018.28 1018.54 1018.75 1018.91 1019.05 1019.17 1019.26 1019.32 1019.35 1019.33 1019.29
1013.72 1012.82 1011.84 1010.79 1009.71 1008.65 1007.65 1006.78 1006.06 1005.54 1005.24 1005.15 1005.26 1005.53 1005.93 1006.42 1006.96 1007.53 1008.12 1008.73 1009.37 1010.03 1010.75 1011.51 1012.31 1013.15 1014.00 1014.84 1015.63 1016.36 1017.01 1017.58 1018.07 1018.49 1018.85 1019.17 1019.45 1019.71 1019.95 1020.16 1020.33 1020.45 1020.52 1020.54
1013.40 1012.49 1011.53 1010.53 1009.52 1008.54 1007.62 1006.82 1006.17 1005.70 1005.42 1005.33 1005.43 1005.68 1006.05 1006.51 1007.04 1007.60 1008.19 1008.81 1009.45 1010.13 1010.85 1011.62 1012.42 1013.24 1014.08 1014.90 1015.68 1016.41 1017.08 1017.68 1018.22 1018.71 1019.15 1019.56 1019.94 1020.30 1020.63 1020.92 1021.16 1021.35 1021.47 1021.54
1013.02 1012.13 1011.21 1010.29 1009.38 1008.50 1007.70 1007.01 1006.45 1006.05 1005.82 1005.76 1005.86 1006.11 1006.45 1006.89 1007.39 1007.93 1008.51 1009.12 1009.76 1010.43 1011.13 1011.88 1012.65 1013.43 1014.23 1015.01 1015.77 1016.48 1017.15 1017.77 1018.35 1018.89 1019.40 1019.88 1020.33 1020.76 1021.15 1021.50 1021.79 1022.02 1022.18 1022.28
1012.60 1011.75 1010.91 1010.08 1009.28 1008.54 1007.87 1007.30 1006.86 1006.55 1006.39 1006.37 1006.50 1006.74 1007.08 1007.49 1007.97 1008.49 1009.04 1009.63 1010.24 1010.88 1011.55 1012.24 1012.96 1013.70 1014.43 1015.16 1015.87 1016.56 1017.21 1017.84 1018.43 1019.01 1019.56 1020.09 1020.60 1021.07 1021.51 1021.89 1022.21 1022.46 1022.65 1022.78
1012.15 1011.37 1010.61 1009.88 1009.20 1008.59 1008.06 1007.63 1007.31 1007.11 1007.03 1007.08 1007.24 1007.50 1007.84 1008.25 1008.71 1009.20 1009.73 1010.28 1010.85 1011.44 1012.06 1012.69 1013.34 1014.00 1014.67 1015.33 1015.98 1016.63 1017.25 1017.87 1018.47 1019.06 1019.64 1020.20 1020.73 1021.24 1021.70 1022.10 1022.44 1022.72 1022.93 1023.08
1011.68 1010.97 1010.30 1009.68 1009.12 1008.63 1008.23 1007.93 1007.73 1007.64 1007.66 1007.78 1008.00 1008.30 1008.66 1009.07 1009.53 1010.00 1010.50 1011.01 1011.54 1012.08 1012.63 1013.19 1013.76 1014.34 1014.93 1015.51 1016.10 1016.69 1017.28 1017.87 1018.46 1019.05 1019.64 1020.22 1020.77 1021.29 1021.77 1022.19 1022.55 1022.84 1023.07 1023.25
1011.20 1010.56 1009.97 1009.44 1008.97 1008.60 1008.31 1008.13 1008.05 1008.08 1008.20 1008.41 1008.70 1009.05 1009.46 1009.89 1010.35 1010.82 1011.30 1011.78 1012.26 1012.75 1013.23 1013.72 1014.21 1014.71 1015.21 1015.72 1016.25 1016.78 1017.32 1017.88 1018.45 1019.03 1019.62 1020.20 1020.76 1021.29 1021.78 1022.21 1022.58 1022.90 1023.15 1023.35
1010.72 1010.14 1009.61 1009.14 1008.76 1008.47 1008.29 1008.21 1008.24 1008.38 1008.61 1008.92 1009.29 1009.72 1010.18 1010.65 1011.14 1011.62 1012.08 1012.54 1012.99 1013.42 1013.84 1014.26 1014.68 1015.11 1015.54 1015.98 1016.44 1016.91 1017.41 1017.93 1018.48 1019.04 1019.61 1020.18 1020.74 1021.27 1021.76 1022.21 1022.59 1022.92 1023.20 1023.43
1010.25 1009.71 1009.21 1008.79 1008.47 1008.25 1008.15 1008.17 1008.30 1008.55 1008.88 1009.30 1009.77 1010.28 1010.81 1011.34 1011.86 1012.35 1012.82 1013.27 1013.68 1014.08 1014.45 1014.82 1015.18 1015.54 1015.91 1016.29 1016.69 1017.12 1017.57 1018.06 1018.57 1019.10 1019.65 1020.20 1020.75 1021.28 1021.77 1022.21 1022.61 1022.96 1023.25 1023.50
1009.83 1009.30 1008.82 1008.43 1008.14 1007.98 1007.95 1008.04 1008.27 1008.61 1009.05 1009.57 1010.14 1010.74 1011.34 1011.93 1012.49 1013.02 1013.50 1013.94 1014.34 1014.71 1015.05 1015.37 1015.68 1015.99 1016.31 1016.65 1017.01 1017.39 1017.81 1018.25 1018.73 1019.23 1019.75 1020.28 1020.80 1021.31 1021.79 1022.24 1022.64 1022.99 1023.30 1023.57
1009.50 1008.97 1008.50 1008.12 1007.85 1007.73 1007.75 1007.91 1008.22 1008.65 1009.18 1009.79 1010.45 1011.13 1011.80 1012.44 1013.05 1013.60 1014.10 1014.54 1014.93 1015.28 1015.60 1015.89 1016.17 1016.45 1016.74 1017.04 1017.37 1017.72 1018.10 1018.50 1018.94 1019.40 1019.89 1020.38 1020.87 1021.35 1021.82 1022.25 1022.65 1023.01 1023.33 1023.61
1009.33 1008.78 1008.31 1007.93 1007.68 1007.59 1007.65 1007.87 1008.24 1008.74 1009.34 1010.02 1010.75 1011.49 1012.22 1012.91 1013.54 1014.12 1014.63 1015.07 1015.45 1015.79 1016.09 1016.36 1016.63 1016.89 1017.15 1017.43 1017.73 1018.05 1018.40 1018.77 1019.17 1019.59 1020.02 1020.47 1020.92 1021.37 1021.80 1022.22 1022.60 1022.96 1023.28 1023.57
1009.36 1008.81 1008.33 1007.96 1007.72 1007.65 1007.74 1008.00 1008.41 1008.95 1009.61 1010.33 1011.10 1011.87 1012.63 1013.34 1013.99 1014.56 1015.07 1015.51 1015.88 1016.21 1016.50 1016.77 1017.02 1017.27 1017.52 1017.79 1018.07 1018.37 1018.68 1019.02 1019.37 1019.74 1020.12 1020.51 1020.91 1021.31 1021.71 1022.09 1022.46 1022.81 1023.13 1023.43
1009.65 1009.09 1008.62 1008.27 1008.05 1008.00 1008.11 1008.38 1008.81 1009.37 1010.04 1010.77 1011.54 1012.32 1013.06 1013.76 1014.40 1014.96 1015.46 1015.88 1016.24 1016.55 1016.83 1017.09 1017.34 1017.58 1017.83 1018.08 1018.35 1018.62 1018.91 1019.20 1019.51 1019.82 1020.14 1020.48 1020.82 1021.16 1021.51 1021.86 1022.20 1022.53 1022.85 1023.16
1010.21 1009.68 1009.23 1008.90 1008.70 1008.66 1008.78 1009.06 1009.48 1010.03 1010.67 1011.37 1012.11 1012.85 1013.56 1014.21 1014.81 1015.34 1015.80 1016.19 1016.53 1016.83 1017.10 1017.35 1017.59 1017.82 1018.06 1018.31 1018.55 1018.80 1019.05 1019.31 1019.56 1019.82 1020.08 1020.35 1020.63 1020.92 1021.22 1021.52 1021.83 1022.15 1022.46 1022.77
1011.04 1010.56 1010.15 1009.85 1009.68 1009.65 1009.77 1010.03 1010.42 1010.92 1011.51 1012.15 1012.82 1013.48 1014.12 1014.71 1015.25 1015.72 1016.13 1016.48 1016.79 1017.06 1017.31 1017.55 1017.78 1018.00 1018.23 1018.46 1018.69 1018.91 1019.13 1019.34 1019.54 1019.74 1019.95 1020.15 1020.37 1020.60 1020.85 1021.11 1021.39 1021.69 1021.99 1022.29
1012.10 1011.68 1011.34 1011.08 1010.93 1010.91 1011.01 1011.24 1011.58 1012.01 1012.52 1013.08 1013.65 1014.22 1014.77 1015.27 1015.73 1016.13 1016.48 1016.78 1017.05 1017.29 1017.51 1017.72 1017.93 1018.14 1018.35 1018.56 1018.76 1018.95 1019.13 1019.30 1019.46 1019.61 1019.76 1019.91 1020.07 1020.26 1020.46 1020.68 1020.93 1021.20 1021.48 1021.78
1013.30 1012.96 1012.68 1012.47 1012.35 1012.33 1012.41 1012.60 1012.87 1013.23 1013.64 1014.10 1014.56 1015.03 1015.47 1015.88 1016.25 1016.57 1016.85 1017.10 1017.31 1017.51 1017.70 1017.88 1018.07 1018.25 1018.43 1018.61 1018.78 1018.94 1019.08 1019.21 1019.33 1019.44 1019.54 1019.65 1019.77 1019.92 1020.08 1020.27 1020.49 1020.74 1021.01 1021.29
Thickness
5735 5745 5749 5753 5751 5743 5742 5736 5730 5738 5743 5762 5772 5775 5777 5776 5773 5770 5768 5766 5763 5760 5757 5756 5753 5749 5746 5744 5743 5741 5737 5733 5731 5729 5729 5727 5725 5724 5722 5720 5718 5716 5714 5713
5732 5741 5745 5747 5751 5747 5748 5747 5745 5750 5752 5771 5775 5775 5774 5773 5771 5768 5766 5764 5762 5759 5755 5753 5750 5746 5743 5741 5740 5737 5733 5730 5728 5726 5725 5723 5721 5720 5718 5716 5714 5712 5710 5708
5711 5729 5734 5727 5745 5747 5750 5754 5752 5749 5762 5770 5769 5771 5773 5772 5771 5769 5766 5763 5760 5757 5753 5750 5748 5745 5741 5738 5735 5732 5729 5726 5723 5722 5719 5717 5716 5714 5712 5710 5709 5707 5704 5702
5697 5712 5703 5729 5754 5756 5754 5756 5759 5764 5768 5769 5772 5773 5774 5775 5772 5768 5765 5762 5758 5755 5751 5748 5745 5742 5738 5734 5731 5727 5724 5721 5719 5717 5714 5712 5710 5708 5706 5704 5702 5700 5698 5696
5682 5690 5705 5730 5746 5748 5746 5749 5760 5761 5764 5765 5767 5766 5765 5770 5772 5769 5766 5762 5758 5754 5750 5745 5741 5738 5733 5729 5726 5722 5719 5716 5714 5712 5709 5707 5704 5702 5700 5698 5695 5693 5691 5688
5677 5686 5688 5718 5742 5750 5747 5738 5758 5759 5758 5759 5761 5750 5757 5766 5766 5763 5760 5756 5753 5749 5745 5740 5736 5733 5728 5723 5720 5716 5714 5711 5709 5706 5703 5701 5698 5695 5693 5690 5687 5685 5682 5680
5673 5680 5692 5718 5732 5741 5722 5731 5753 5755 5756 5756 5756 5759 5762 5762 5760 5757 5754 5750 5746 5743 5738 5735 5731 5727 5722 5718 5714 5712 5709 5706 5702 5699 5697 5693 5690 5688 5685 5682 5679 5676 5673 5670
5662 5670 5683 5715 5722 5722 5725 5740 5746 5750 5752 5751 5751 5753 5755 5754 5751 5749 5746 5741 5738 5734 5730 5727 5724 5720 5716 5712 5709 5706 5703 5699 5695 5692 5689 5686 5683 5680 5677 5674 5671 5667 5664 5660
5663 5673 5692 5704 5710 5720 5725 5731 5738 5742 5745 5745 5743 5743 5744 5742 5741 5739 5736 5733 5730 5726 5721 5717 5715 5713 5709 5705 5702 5699 5695 5692 5688 5684 5681 5678 5675 5672 5669 5666 5663 5659 5655 5651
5660 5675 5687 5697 5705 5713 5721 5726 5732 5736 5737 5739 5736 5735 5733 5731 5728 5726 5725 5724 5721 5717 5712 5708 5705 5703 5701 5698 5695 5692 5688 5683 5680 5676 5672 5669 5666 5663 5660 5657 5654 5650 5647 5642
5652 5665 5677 5689 5696 5703 5711 5718 5723 5726 5727 5728 5727 5724 5723 5720 5717 5715 5714 5712 5711 5707 5703 5699 5696 5694 5691 5689 5686 5683 5679 5675 5671 5667 5663 5658 5654 5651 5649 5647 5645 5642 5639 5635
5643 5657 5662 5673 5684 5693 5699 5704 5709 5712 5712 5714 5715 5713 5711 5709 5707 5704 5701 5700 5698 5695 5692 5689 5686 5683 5680 5678 5677 5674 5669 5665 5661 5657 5654 5649 5645 5639 5635 5634 5633 5631 5629 5626
5642 5652 5657 5666 5675 5683 5688 5693 5698 5699 5699 5700 5700 5701 5699 5695 5693 5692 5690 5688 5686 5683 5681 5678 5676 5673 5670 5668 5666 5663 5660 5656 5652 5648 5644 5640 5636 5632 5627 5622 5620 5618 5616 5614
5638 5644 5650 5658 5665 5671 5676 5680 5684 5685 5684 5685 5686 5687 5686 5683 5681 5680 5678 5676 5674 5672 5670 5668 5665 5662 5659 5657 5655 5652 5649 5646 5642 5638 5634 5631 5627 5623 5619 5616 5611 5605 5601 5600
5632 5637 5643 5650 5655 5660 5664 5667 5669 5670 5670 5670 5672 5673 5672 5671 5669 5667 5666 5665 5663 5661 5658 5656 5654 5650 5648 5646 5643 5640 5638 5634 5630 5627 5623 5620 5616 5613 5609 5605 5601 5595 5591 5587
5624 5631 5636 5640 5644 5648 5651 5653 5656 5657 5657 5658 5658 5659 5659 5658 5656 5655 5653 5653 5651 5648 5646 5644 5641 5638 5636 5634 5632 5629 5626 5623 5620 5616 5612 5609 5605 5602 5598 5594 5590 5586 5582 5578
5615 5620 5626 5630 5635 5638 5641 5643 5645 5646 5646 5646 5646 5646 5646 5645 5644 5642 5640 5639 5638 5636 5634 5633 5630 5627 5625 5623 5621 5618 5615 5612 5609 5605 5601 5598 5595 5592 5588 5585 5580 5576 5572 5569
5614 5619 5623 5626 5628 5630 5631 5633 5635 5636 5635 5635 5635 5635 5634 5633 5632 5630 5628 5627 5626 5624 5622 5620 5618 5616 5614 5612 5609 5607 5604 5600 5597 5594 5591 5587 5584 5581 5578 5575 5571 5567 5563 5558
5609 5613 5617 5620 5621 5623 5624 5625 5625 5626 5625 5625 5624 5623 5622 5621 5619 5618 5617 5616 5615 5613 5610 5608 5606 5605 5602 5600 5598 5595 5593 5589 5586 5583 5580 5576 5573 5570 5567 5565 5561 5558 5554 5550
5604 5607 5610 5613 5615 5615 5616 5617 5616 5616 5615 5615 5614 5612 5611 5609 5608 5607 5606 5604 5603 5601 5599 5597 5596 5593 5591 5589 5587 5585 5582 5579 5576 5572 5569 5566 5563 5560 5557 5555 5552 5548 5545 5541
5596 5599 5602 5604 5605 5606 5607 5607 5607 5606 5605 5606 5605 5603 5601 5599 5597 5596 5596 5594 5591 5590 5589 5587 5585 5583 5581 5579 5577 5574 5572 5569 5566 5563 5560 5557 5554 5551 5548 5546 5543 5539 5536 5533
5588 5591 5593 5595 5596 5596 5597 5598 5598 5598 5597 5596 5595 5594 5592 5589 5587 5586 5585 5584 5582 5580 5579 5577 5575 5574 5572 5569 5567 5565 5562 5560 5557 5554 5552 5549 5546 5543 5540 5537 5534 5532 5528 5525
5580 5583 5585 5586 5587 5587 5588 5589 5589 5589 5588 5588 5586 5585 5584 5581 5580 5579 5576 5574 5574 5572 5570 5569 5567 5565 5563 5561 5559 5556 5554 5552 5549 5547 5544 5542 5539 5536 5533 5531 5528 5525 5521 5518
5575 5577 5578 5579 5580 5580 5579 5579 5579 5579 5579 5578 5578 5577 5576 5574 5571 5570 5569 5567 5566 5564 5562 5560 5559 5557 5556 5554 5552 5549 5547 5545 5543 5540 5538 5535 5532 5530 5527 5524 5522 5519 5515 5512
5569 5571 5572 5572 5572 5572 5571 5571 5571 5570 5570 5569 5568 5567 5567 5566 5565 5563 5561 5560 5558 5556 5555 5553 5552 5550 5549 5547 5545 5543 5541 5539 5537 5535 5533 5530 5527 5525 5522 5519 5516 5513 5510 5507
5562 5563 5563 5564 5565 5564 5564 5564 5563 5562 5562 5561 5560 5559 5559 5558 5557 5555 5554 5553 5552 5550 5549 5547 5546 5545 5544 5542 5540 5538 5536 5534 5532 5530 5527 5525 5522 5519 5517 5514 5511 5509 5506 5503
5556 5556 5557 5557 5557 5558 5558 5558 5557 5556 5556 5556 5554 5553 5552 5551 5550 5549 5548 5547 5546 5544 5544 5542 5541 5540 5539 5537 5535 5533 5531 5529 5527 5525 5522 5520 5517 5515 5512 5510 5507 5504 5501 5498